Weather History for PAQT - April, 2014

Change the Weather History Date:

Sunday, April 6, 2014

  Actual Average (PAKU) Record (PAKU)
Temperature  
Mean Temperature -18 °F -  
Max Temperature -13 °F 2 °F 28 °F (1989)
Min Temperature -25 °F -7 °F -36 °F (1986)
Degree Days  
Heating Degree Days 84    
Moisture  
Dew Point -21 °F    
Average Humidity 89    
Maximum Humidity 100    
Minimum Humidity 82    
Precipitation  
Precipitation 0.00 in - - ()
Sea Level Pressure  
Sea Level Pressure 29.91 in    
Wind  
Wind Speed 12 mph (SW)    
Max Wind Speed 15 mph    
Max Gust Speed -    
Visibility 4 miles    
Events Fog    
Averages and records for this station are not official NWS values.
T = Trace of Precipitation, MM = Missing Value Source: NWS Daily Summary

Daily Weather History Graph

Daily Weather History Graph

Search for Another Location

Airport or City:

Trip Planner

Search our weather history database for the weather conditions in past years. The results will help you decide how hot, cold, wet, or windy it might be!

Date:

Astronomy

Apr. 06, 2014 Rise Set
Actual Time 6:41 AM AKDT 9:34 PM AKDT
Civil Twilight 5:30 AM AKDT 10:46 PM AKDT
Nautical Twilight 3:28 AM AKDT 12:55 AM AKDT
Astronomical Twilight Sun does not set Sun does not set
Moon 9:28 AM AKDT (4/6) 6:01 AM AKDT (4/6)
Length of Visible Light 17h 16m
Length of Day
14h 53m
Waxing Crescent, 45% of the Moon is Illuminated
Apr 6
Waxing Crescent
Apr 7
First Quarter
Apr 14
Full
Apr 21
Last Quarter
Apr 28
New

Hourly Weather History & Observations

Time (AKDT) Temp. Windchill Dew Point Humidity Pressure Visibility Wind Dir Wind Speed Gust Speed Precip Events Conditions
12:00 AM -18.9 °F -42.8 °F -22.0 °F 86% 29.86 in 3.0 mi West 13.8 mph - N/A   Scattered Clouds
12:27 AM -20.0 °F -43.2 °F -23.1 °F 86% 29.86 in 3.0 mi WSW 12.7 mph - N/A   Mostly Cloudy
12:39 AM -20.0 °F -44.1 °F -23.1 °F 86% 29.86 in 4.0 mi WSW 13.8 mph - N/A   Partly Cloudy
12:53 AM -20.0 °F -43.2 °F -23.1 °F 86% 29.87 in 3.0 mi WSW 12.7 mph - N/A   Scattered Clouds
1:04 AM -20.0 °F -43.2 °F -23.1 °F 86% 29.86 in 2.5 mi WSW 12.7 mph - N/A   Partly Cloudy
1:27 AM -20.0 °F -43.2 °F -22.0 °F 91% 29.87 in 2.5 mi WSW 12.7 mph - N/A   Mostly Cloudy
1:53 AM -20.0 °F -44.1 °F -23.1 °F 86% 29.88 in 2.5 mi WSW 13.8 mph - N/A   Scattered Clouds
2:07 AM -20.0 °F -45.0 °F -23.1 °F 86% 29.87 in 3.0 mi WSW 15.0 mph - N/A   Partly Cloudy
2:17 AM -20.0 °F -44.1 °F -24.0 °F 82% 29.88 in 2.0 mi WSW 13.8 mph - N/A   Clear
2:48 AM -22.0 °F -45.7 °F -25.6 °F 83% 29.88 in 3.0 mi WSW 12.7 mph - N/A   Clear
2:53 AM -22.0 °F -46.6 °F -25.1 °F 86% 29.89 in 2.5 mi WSW 13.8 mph - N/A   Clear
3:18 AM -22.0 °F -47.5 °F -25.1 °F 86% 29.88 in 2.0 mi WSW 15.0 mph - N/A   Partly Cloudy
3:33 AM -20.0 °F -44.1 °F -23.1 °F 86% 29.88 in 1.5 mi WSW 13.8 mph - N/A   Mostly Cloudy
3:53 AM -18.0 °F -41.6 °F -20.9 °F 87% 29.89 in 1.0 mi WSW 13.8 mph - N/A   Overcast
4:22 AM -17.0 °F -38.4 °F -20.0 °F 86% 29.89 in 2.5 mi WSW 11.5 mph - N/A   Overcast
4:48 AM -16.6 °F -37.9 °F -18.4 °F 92% 29.89 in 3.0 mi WSW 11.5 mph - N/A   Overcast
4:53 AM -17.0 °F -39.3 °F -18.9 °F 91% 29.90 in 2.0 mi WSW 12.7 mph - N/A   Overcast
5:29 AM -17.0 °F -37.3 °F -20.0 °F 86% 29.90 in 5.0 mi SW 10.4 mph - N/A   Overcast
5:53 AM -17.0 °F -38.4 °F -18.9 °F 91% 29.91 in 7.0 mi SW 11.5 mph - N/A   Overcast
6:20 AM -18.0 °F -39.7 °F -20.0 °F 91% 29.90 in 2.0 mi SW 11.5 mph - N/A   Overcast
6:28 AM -18.0 °F -39.7 °F -20.0 °F 91% 29.90 in 1.5 mi SW 11.5 mph - N/A   Overcast
6:46 AM -18.0 °F -39.7 °F -20.0 °F 91% 29.91 in 0.8 mi SW 11.5 mph - N/A   Overcast
6:53 AM -18.0 °F -38.6 °F -20.0 °F 91% 29.91 in 0.5 mi SW 10.4 mph - N/A Fog Light Freezing Fog
7:07 AM -18.0 °F -39.7 °F -20.9 °F 87% 29.91 in 1.0 mi SW 11.5 mph - N/A   Overcast
7:19 AM -18.9 °F -40.8 °F -20.0 °F 95% 29.91 in 2.0 mi SW 11.5 mph - N/A   Overcast
7:26 AM -18.9 °F -39.8 °F -20.0 °F 95% 29.91 in 1.2 mi SW 10.4 mph - N/A   Overcast
7:53 AM -20.0 °F -42.2 °F -22.0 °F 91% 29.91 in 1.8 mi SSW 11.5 mph - N/A   Overcast
8:06 AM -20.0 °F -41.1 °F -22.0 °F 91% 29.91 in 2.5 mi SSW 10.4 mph - N/A   Overcast
8:24 AM -20.0 °F -41.1 °F -20.9 °F 96% 29.91 in 0.8 mi SW 10.4 mph - N/A   Overcast
8:53 AM -20.0 °F -41.1 °F -20.0 °F 100% 29.91 in 0.2 mi SW 10.4 mph - N/A Fog Light Freezing Fog
9:09 AM -20.9 °F -42.2 °F -20.9 °F 100% 29.91 in 2.5 mi SW 10.4 mph - N/A   Overcast
9:23 AM -20.9 °F -41.0 °F -20.9 °F 100% 29.91 in 1.8 mi SW 9.2 mph - N/A   Overcast
9:39 AM -20.0 °F -39.9 °F -20.0 °F 100% 29.91 in 3.0 mi WSW 9.2 mph - N/A   Overcast
9:45 AM -20.0 °F -39.9 °F -20.9 °F 96% 29.91 in 1.8 mi SW 9.2 mph - N/A   Overcast
9:53 AM -20.0 °F -42.2 °F -20.9 °F 96% 29.92 in 1.5 mi SW 11.5 mph - N/A   Overcast
10:00 AM -20.0 °F -41.1 °F -20.9 °F 96% 29.91 in 3.0 mi WSW 10.4 mph - N/A   Overcast
10:07 AM -20.0 °F -41.1 °F -20.9 °F 96% 29.91 in 2.5 mi WSW 10.4 mph - N/A   Overcast
10:20 AM -18.9 °F -38.6 °F -20.0 °F 95% 29.91 in 1.5 mi WSW 9.2 mph - N/A   Overcast
10:28 AM -18.9 °F -37.2 °F -20.0 °F 95% 29.91 in 3.0 mi WSW 8.1 mph - N/A   Overcast
10:53 AM -18.9 °F -38.6 °F -18.9 °F 100% 29.92 in 5.0 mi SSW 9.2 mph - N/A   Overcast
11:53 AM -18.9 °F -38.6 °F -20.9 °F 91% 29.93 in 9.0 mi SW 9.2 mph - N/A   Overcast
12:16 PM -18.0 °F -37.5 °F -20.0 °F 91% 29.92 in 10.0 mi WSW 9.2 mph - N/A   Overcast
12:24 PM -18.0 °F -37.5 °F -20.0 °F 91% 29.92 in 9.0 mi WSW 9.2 mph - N/A   Overcast
12:39 PM -17.0 °F -36.1 °F -20.0 °F 86% 29.92 in 1.8 mi SW 9.2 mph - N/A   Overcast
12:53 PM -17.0 °F -36.1 °F -20.0 °F 86% 29.93 in 2.0 mi SW 9.2 mph - N/A   Overcast
12:58 PM -17.0 °F -36.1 °F -20.0 °F 86% 29.92 in 3.0 mi SW 9.2 mph - N/A   Overcast
1:40 PM -17.0 °F -36.1 °F -20.0 °F 86% 29.92 in 10.0 mi SW 9.2 mph - N/A   Scattered Clouds
1:53 PM -16.1 °F -35.0 °F -18.9 °F 87% 29.93 in 4.0 mi SSW 9.2 mph - N/A   Partly Cloudy
2:06 PM -16.1 °F -32.3 °F -18.9 °F 87% 29.92 in 1.8 mi SSW 6.9 mph - N/A   Partly Cloudy
2:10 PM -16.1 °F -33.7 °F -18.9 °F 87% 29.92 in 0.8 mi SW 8.1 mph - N/A   Mist
2:21 PM -16.1 °F -33.7 °F -18.9 °F 87% 29.93 in 1.2 mi SW 8.1 mph - N/A   Partly Cloudy
2:29 PM -15.0 °F -33.7 °F -18.0 °F 86% 29.93 in 10.0 mi SSW 9.2 mph - N/A   Partly Cloudy
2:53 PM -15.0 °F -33.7 °F -18.0 °F 86% 29.94 in 10.0 mi SSW 9.2 mph - N/A   Clear
3:30 PM -14.1 °F -32.6 °F -18.0 °F 82% 29.93 in 1.5 mi SW 9.2 mph - N/A   Clear
3:35 PM -14.1 °F -31.3 °F -18.0 °F 82% 29.93 in 1.0 mi SW 8.1 mph - N/A   Mist
3:53 PM -14.1 °F -32.6 °F -18.0 °F 82% 29.94 in 10.0 mi SW 9.2 mph - N/A   Partly Cloudy
4:53 PM -14.1 °F -31.3 °F -17.0 °F 87% 29.94 in 10.0 mi SW 8.1 mph - N/A   Clear
5:53 PM -14.1 °F -29.9 °F -17.0 °F 87% 29.94 in 10.0 mi SW 6.9 mph - N/A   Clear
6:53 PM -15.0 °F -31.0 °F -18.0 °F 86% 29.94 in 10.0 mi SSW 6.9 mph - N/A   Clear
7:53 PM -18.0 °F -34.7 °F -20.9 °F 87% 29.94 in 10.0 mi SW 6.9 mph - N/A   Clear
8:53 PM -20.0 °F -35.3 °F -23.1 °F 86% 29.95 in 10.0 mi SW 5.8 mph - N/A   Clear
9:53 PM -22.0 °F -41.0 °F -25.1 °F 86% 29.94 in 10.0 mi SSW 8.1 mph - N/A   Clear
10:53 PM -23.1 °F -43.7 °F -26.0 °F 86% 29.95 in 10.0 mi SSW 9.2 mph - N/A   Clear
11:53 PM -25.1 °F -46.1 °F -27.0 °F 90% 29.95 in 10.0 mi SSW 9.2 mph - N/A   Clear